Location: 81360 Arifat, France
(43.7204°N, 2.3408°E)
Time: 22:00:51
(UTC+02:00)

N. Korean satellite - Pass Details

Date: 03 October 2021
Orbit: 450 x 495 km, 97.3° (Epoch: 25 October)

Event Time Altitude Azimuth Distance (km) Brightness Sun altitude
Rises 06:28:48 0° 24° (NNE) 2,556 10.7 -15.6°
Reaches altitude 10° 06:31:07 10° 37° (NE) 1,678 10.0 -15.1°
Maximum altitude 06:34:11 26° 96° (E) 1,001 9.0 -14.6°
Drops below altitude 10° 06:37:16 10° 154° (SSE) 1,681 9.5 -14.0°
Sets 06:39:35 0° 167° (SSE) 2,561 10.3 -13.6°
